User: anonymous   Login
Location: Melizzano
(41.1500°N, 14.5000°E)
Time: 01:15:14
(UTC+00:00)
Language:

Resurs 01 Rocket - Orbit

View from above orbital plane
View from above orbital plane
View from above satellite
View from above satellite

Ground track
Ground track

The orbit data is extracted from the following two-line orbital elements,

1 23343U 94074B   21207.60028043  .00000046  00000-0  13715-4 0  9995
2 23343  97.9434 261.6311 0005535 293.0097 200.9152 14.76891181438067
Epoch (UTC): 26 July 2021 14:24:24
Eccentricity: 0.0005535
inclination: 97.9434°
perigee height: 635 km
apogee height: 643 km
right ascension of ascending node: 261.6311°
argument of perigee: 293.0097°
revolutions per day: 14.76891181
mean anomaly at epoch: 200.9152°
orbit number at epoch: 43806

The dashed part of the orbit path shows where the satellite is in the earth's shadow,  

DLR